N4MRV-1 Weather Reports


time (UTC)temp
F
wind
direction
speed
knots
gust
knots
rain 1hr
in
rain 24hr
in
rain mn
in
humidity
%
barometer
mb
20260906231516 77 0.0 0.9 0.00 0.00 0.00 66 1014.6
20260906230016 78 0.0 1.7 0.00 0.00 0.00 64 1014.6
20260906224516 79 0.0 1.7 0.00 0.00 0.00 62 1014.6
20260906223016 79 0.0 1.7 0.00 0.00 0.00 61 1014.4
20260906221516 79 68 0.9 2.6 0.00 0.00 0.00 59 1014.4
20260906220016 80 68 0.9 2.6 0.00 0.00 0.00 57 1014.3
20260906214516 80 90 0.9 1.7 0.00 0.00 0.00 57 1014.3
20260906213016 80 135 0.9 2.6 0.00 0.00 0.00 55 1014.2
20260906211516 80 23 0.9 2.6 0.00 0.00 0.00 56 1014.3
20260906210016 80 90 0.9 1.7 0.00 0.00 0.00 52 1014.3
20260906204516 80 113 0.9 2.6 0.00 0.00 0.00 56 1014.4
20260906203016 80 90 0.9 1.7 0.00 0.00 0.00 56 1014.5
20260906201516 81 135 0.9 5.2 0.00 0.00 0.00 57 1014.5
20260906200016 81 293 0.9 3.5 0.00 0.00 0.00 57 1014.3
20260906194516 80 315 0.9 3.5 0.00 0.00 0.00 57 1014.4
20260906193016 80 180 0.9 4.3 0.00 0.00 0.00 61 1014.3
20260906191516 80 135 0.9 3.5 0.00 0.00 0.00 57 1014.5
20260906190016 80 315 0.9 3.5 0.00 0.00 0.00 59 1014.7
20260906184556 80 45 0.9 2.6 0.00 0.00 0.00 60 1014.8
20260906183016 80 45 1.7 5.2 0.00 0.00 0.00 57 1014.9
20260906181516 80 293 0.9 5.2 0.00 0.00 0.00 59 1014.9
20260906180016 80 293 0.9 3.5 0.00 0.00 0.00 62 1014.8
20260906174515 80 135 0.9 2.6 0.00 0.00 0.00 58 1014.8
20260906173016 80 293 0.9 5.2 0.00 0.00 0.00 60 1014.9
20260906171536 80 113 0.9 4.3 0.00 0.00 0.00 58 1015.0
20260906170016 80 270 0.9 3.5 0.00 0.01 0.00 58 1015.1
20260906164515 80 293 0.9 5.2 0.00 0.03 0.00 60 1015.1
20260906163036 81 293 0.9 2.6 0.00 0.53 0.00 60 1015.3
20260906161515 81 338 0.9 1.7 0.00 0.62 0.00 60 1015.3
20260906160035 80 180 0.9 2.6 0.00 0.62 0.00 62 1015.3
20260906154556 80 203 0.9 2.6 0.00 0.62 0.00 63 1015.6
20260906153055 79 315 0.9 4.3 0.00 0.62 0.00 70 1015.6
20260906151515 78 270 0.9 1.7 0.00 0.62 0.00 72 1015.4
20260906150015 77 135 0.9 2.6 0.00 0.62 0.00 75 1015.4
20260906144515 75 0.0 1.7 0.00 0.62 0.00 78 1015.4
20260906143015 73 68 0.9 2.6 0.00 0.62 0.00 80 1015.3
20260906141515 73 180 0.9 2.6 0.00 0.62 0.00 84 1015.2
20260906140035 72 293 0.9 3.5 0.00 0.62 0.00 85 1015.2
20260906134515 72 293 0.9 3.5 0.00 0.62 0.00 87 1015.1
20260906133015 71 0.0 1.7 0.00 0.62 0.00 87 1014.9
20260906131515 70 0.0 1.7 0.00 0.62 0.00 89 1014.8
20260906130017 70 0.0 1.7 0.00 0.62 0.00 91 1015.0
20260906124517 69 0.0 0.9 0.00 0.62 0.00 92 1015.1
20260906123017 69 0.0 0.9 0.00 0.62 0.00 93 1014.9
20260906121517 68 0.0 0.9 0.00 0.62 0.00 93 1014.5
20260906120057 68 0.0 0.9 0.00 0.62 0.00 94 1014.6
20260906114517 68 0.0 0.9 0.00 0.62 0.00 94 1014.3
20260906113017 68 0.0 0.0 0.00 0.62 0.00 93 1014.1
20260906111517 69 0.0 0.0 0.00 0.62 0.00 93 1013.9
20260906110017 69 0.0 0.9 0.00 0.62 0.00 93 1013.7
20260906104517 69 0.0 0.0 0.00 0.62 0.00 94 1013.4
20260906103017 69 0.0 0.9 0.00 0.62 0.00 94 1013.4
20260906101516 70 0.0 0.9 0.00 0.62 0.00 94 1013.1
20260906100017 70 0.0 0.0 0.00 0.62 0.00 94 1012.9
20260906094517 70 0.0 0.0 0.00 0.62 0.00 95 1012.8
20260906093017 71 0.0 0.0 0.00 0.62 0.00 95 1012.6
20260906091517 71 0.0 0.0 0.00 0.62 0.00 95 1012.6
20260906090017 71 0.0 0.0 0.00 0.62 0.00 95 1012.5
20260906084517 71 0.0 0.0 0.00 0.62 0.00 95 1012.5
20260906083016 71 0.0 0.0 0.00 0.62 0.00 95 1012.4
20260906081517 71 0.0 0.0 0.00 0.62 0.00 95 1012.2
20260906080017 71 0.0 0.9 0.00 0.62 0.00 95 1012.3
20260906074517 72 0.0 0.9 0.00 0.62 0.00 95 1012.1
20260906073016 72 0.0 0.9 0.00 0.62 0.00 95 1012.1
20260906071516 72 0.0 1.7 0.00 0.62 0.00 95 1012.0
20260906070036 72 0.0 0.9 0.00 0.62 0.00 95 1012.0
20260906064516 72 0.0 1.7 0.00 0.62 0.00 95 1012.2
20260906063016 72 0.0 0.0 0.00 0.62 0.00 95 1012.1
20260906061516 72 0.0 0.0 0.00 0.62 0.00 95 1012.2
20260906060016 72 0.0 0.0 0.00 0.62 0.00 95 1012.2
20260906054516 72 0.0 0.0 0.00 0.62 0.00 95 1012.5
20260906053016 72 0.0 0.0 0.00 0.62 0.00 95 1012.4
20260906051516 72 0.0 0.0 0.00 0.62 0.00 95 1012.5
20260906050016 72 0.0 0.0 0.00 0.62 0.00 95 1012.6
20260906044516 72 0.0 0.0 0.00 0.62 0.00 95 1012.7
20260906043016 72 0.0 0.0 0.00 0.62 0.00 94 1012.8
20260906041516 72 0.0 0.0 0.00 0.62 0.00 94 1012.7
20260906040016 72 0.0 0.0 0.00 0.62 0.62 94 1012.5
20260906034537 72 0.0 0.0 0.00 0.62 0.62 94 1012.7
20260906033017 72 0.0 0.0 0.00 0.62 0.62 93 1012.7
20260906031537 72 0.0 0.0 0.00 0.62 0.62 94 1012.5
20260906030017 72 0.0 0.0 0.00 0.62 0.62 93 1012.8
20260906024517 73 0.0 0.0 0.00 0.62 0.62 93 1012.6
20260906023017 73 0.0 0.0 0.00 0.62 0.62 93 1012.7
20260906021537 73 0.0 0.0 0.00 0.62 0.62 93 1012.6
20260906020016 73 0.0 0.0 0.00 0.62 0.62 93 1012.6
20260906014516 74 0.0 0.0 0.00 0.62 0.62 93 1012.5
20260906013016 74 0.0 0.0 0.00 0.62 0.62 93 1012.4
20260906011516 74 0.0 0.0 0.00 0.62 0.62 93 1012.3
20260906010016 74 0.0 0.0 0.00 0.62 0.62 93 1012.1
20260906004516 74 0.0 0.0 0.00 0.62 0.62 92 1011.7
20260906003016 74 0.0 0.9 0.00 0.62 0.62 92 1011.5
20260906001557 75 0.0 0.9 0.00 0.62 0.62 91 1011.3
20260906000016 75 0.0 0.0 0.00 0.62 0.62 91 1011.1
20260905234516 75 0.0 0.0 0.00 0.62 0.62 90 1010.9
20260905233036 75 0.0 0.0 0.00 0.62 0.62 90 1010.9